Terminal Aerodrome Forecast
Issued by NWS Dodge City, KS

Home | Current Version | Previous Version | Graphics & Text | Print | Product List | Glossary Off
Versions: 1 2 3 4 5 6 7 8 9 10 11 12 13 14 15 16 17 18 19 20 21 22 23 24 25 26 27 28 29 30 31 32 33 34 35 36 37 38 39 40 41 42 43 44 45 46 47 48 49 50

561
FTUS43 KDDC 252341
TAFDDC
TAF
KDDC 252341Z 2600/2624 03006KT P6SM SCT250
     FM261100 12009KT 1 1/2SM BR BKN010
     FM261300 11014G22KT 2SM BR BKN007
     FM261600 11014G22KT P6SM BKN015
     FM261800 11016G24KT P6SM BKN040
     FM262100 08013KT P6SM BKN015=

USA.gov is the U.S. government's official web portal to all federal, state and local government web resources and services.